• In Latvia
  • List of Countries
  • For 7 days
  • Water Temperature
  • Satellite Maps
  • Weather Map
  • Weather Widgets
  • user-avatar
    Login

    Hourly Weather Jewłach

    Today, 19 January, Thursday

    Time Temperature Precipitation Wind Pressure Humidity
    00:00 +3°C° 0 mm 0 mps 768 mmHg 92%
    01:00 +3°C° 0 mm 0 mps 768 mmHg 92%
    02:00 +3°C° 0 mm 0 mps 768 mmHg 92%
    03:00 +3°C° 0 mm 0 mps 768 mmHg 93%
    04:00 +2°C° 0 mm 0 mps 768 mmHg 93%
    05:00 +2°C° 0 mm 0 mps 768 mmHg 93%
    06:00 +2°C° 0 mm 0 mps 768 mmHg 93%
    07:00 +3°C° 0 mm 0 mps 768 mmHg 91%
    08:00 +4°C° 0 mm 0 mps 768 mmHg 88%
    09:00 +5°C° 0 mm 0 mps 768 mmHg 85%
    10:00 +7°C° 0.1 mm 1 mps 768 mmHg 82%
    11:00 +7°C° 0.1 mm 1 mps 768 mmHg 78%
    12:00 +8°C° 0.1 mm 1 mps 768 mmHg 75%
    13:00 +8°C° 0.2 mm 1 mps 768 mmHg 75%
    14:00 +8°C° 0.2 mm 1 mps 768 mmHg 75%
    15:00 +8°C° 0.2 mm 1 mps 768 mmHg 76%
    16:00 +7°C° 0.1 mm 1 mps 768 mmHg 81%
    17:00 +6°C° 0.1 mm 1 mps 768 mmHg 87%
    18:00 +5°C° 0.1 mm 1 mps 769 mmHg 92%
    19:00 +5°C° 0.1 mm 1 mps 769 mmHg 93%
    20:00 +4°C° 0.1 mm 1 mps 769 mmHg 93%
    21:00 +4°C° 0.1 mm 1 mps 769 mmHg 94%
    22:00 +4°C° 0.1 mm 1 mps 769 mmHg 94%
    23:00 +4°C° 0.1 mm 1 mps 769 mmHg 94%

    Tomorrow, 20 January, Friday

    Time Temperature Precipitation Wind Pressure Humidity
    00:00 +4°C° 0.1 mm 1 mps 769 mmHg 94%
    01:00 +4°C° 0.1 mm 1 mps 769 mmHg 94%
    02:00 +4°C° 0.1 mm 1 mps 769 mmHg 94%
    03:00 +2°C° 0.1 mm 0 mps 769 mmHg 94%
    04:00 +2°C° 0.1 mm 0 mps 769 mmHg 94%
    05:00 +2°C° 0.1 mm 0 mps 769 mmHg 93%
    06:00 +2°C° 0.1 mm 0 mps 769 mmHg 93%
    07:00 +3°C° 0.1 mm 0 mps 770 mmHg 90%
    08:00 +3°C° 0.1 mm 0 mps 770 mmHg 87%
    09:00 +4°C° 0.1 mm 0 mps 770 mmHg 84%
    10:00 +5°C° 0.1 mm 1 mps 769 mmHg 81%
    11:00 +6°C° 0.1 mm 1 mps 769 mmHg 77%
    12:00 +6°C° 0.1 mm 1 mps 769 mmHg 74%
    13:00 +7°C° 0 mm 1 mps 768 mmHg 73%
    14:00 +7°C° 0 mm 1 mps 768 mmHg 71%
    15:00 +7°C° 0 mm 1 mps 768 mmHg 70%
    16:00 +6°C° 0 mm 1 mps 768 mmHg 75%
    17:00 +5°C° 0 mm 1 mps 768 mmHg 81%
    18:00 +3°C° 0 mm 1 mps 768 mmHg 87%
    19:00 +3°C° 0 mm 1 mps 768 mmHg 88%
    20:00 +2°C° 0 mm 0 mps 768 mmHg 90%
    21:00 +1°C° 0 mm 0 mps 768 mmHg 91%
    22:00 +1°C° 0 mm 0 mps 768 mmHg 91%
    23:00 +1°C° 0 mm 0 mps 768 mmHg 91%

    Day after tomorrow, 21 January, Saturday

    Time Temperature Precipitation Wind Pressure Humidity
    00:00 +1°C° 0 mm 0 mps 768 mmHg 91%
    01:00 +2°C° 0 mm 1 mps 768 mmHg 89%
    02:00 +2°C° 0 mm 1 mps 768 mmHg 88%
    03:00 +2°C° 0 mm 1 mps 768 mmHg 86%
    04:00 +1°C° 0 mm 1 mps 768 mmHg 84%
    05:00 +1°C° 0 mm 1 mps 768 mmHg 82%
    06:00 -1°C° 0 mm 2 mps 767 mmHg 80%
    07:00 +2°C° 0 mm 2 mps 768 mmHg 74%
    08:00 +4°C° 0 mm 1 mps 768 mmHg 69%
    09:00 +5°C° 0 mm 1 mps 768 mmHg 63%
    10:00 +5°C° 0 mm 2 mps 768 mmHg 58%
    11:00 +6°C° 0 mm 2 mps 767 mmHg 53%
    12:00 +8°C° 0 mm 2 mps 767 mmHg 48%
    13:00 +8°C° 0 mm 2 mps 766 mmHg 47%
    14:00 +8°C° 0 mm 2 mps 766 mmHg 46%
    15:00 +8°C° 0 mm 2 mps 766 mmHg 46%
    16:00 +7°C° 0 mm 1 mps 766 mmHg 52%
    17:00 +6°C° 0 mm 1 mps 766 mmHg 59%
    18:00 +4°C° 0 mm 1 mps 766 mmHg 66%
    19:00 +4°C° 0 mm 1 mps 766 mmHg 66%
    20:00 +3°C° 0 mm 1 mps 767 mmHg 66%
    21:00 +3°C° 0 mm 1 mps 767 mmHg 66%
    22:00 +3°C° 0 mm 1 mps 766 mmHg 66%
    23:00 +3°C° 0 mm 1 mps 766 mmHg 65%

    22 January, Sunday

    Time Temperature Precipitation Wind Pressure Humidity
    00:00 +1°C° 0 mm 2 mps 766 mmHg 64%
    01:00 +1°C° 0 mm 2 mps 766 mmHg 63%
    02:00 0°C° 0 mm 3 mps 766 mmHg 63%
    03:00 0°C° 0 mm 3 mps 765 mmHg 62%
    04:00 -1°C° 0 mm 4 mps 765 mmHg 61%
    05:00 -1°C° 0 mm 4 mps 765 mmHg 60%
    06:00 -1°C° 0 mm 5 mps 765 mmHg 59%
    07:00 0°C° 0 mm 5 mps 765 mmHg 56%
    08:00 +1°C° 0 mm 5 mps 765 mmHg 52%
    09:00 +2°C° 0 mm 6 mps 765 mmHg 48%
    10:00 +3°C° 0 mm 6 mps 765 mmHg 45%
    11:00 +4°C° 0 mm 6 mps 764 mmHg 42%
    12:00 +5°C° 0 mm 7 mps 764 mmHg 39%
    13:00 +7°C° 0 mm 6 mps 764 mmHg 39%
    14:00 +7°C° 0 mm 6 mps 764 mmHg 38%
    15:00 +7°C° 0 mm 6 mps 764 mmHg 38%
    16:00 +6°C° 0 mm 4 mps 765 mmHg 42%
    17:00 +4°C° 0 mm 3 mps 766 mmHg 47%
    18:00 +5°C° 0 mm 1 mps 767 mmHg 52%
    19:00 +5°C° 0 mm 1 mps 768 mmHg 53%
    20:00 +4°C° 0 mm 1 mps 768 mmHg 54%
    21:00 +4°C° 0 mm 1 mps 769 mmHg 55%
    22:00 +4°C° 0.3 mm 1 mps 770 mmHg 61%
    23:00 +3°C° 0.3 mm 2 mps 770 mmHg 67%

    23 January, Monday

    Time Temperature Precipitation Wind Pressure Humidity
    00:00 +2°C° 0.3 mm 2 mps 770 mmHg 73%
    01:00 +2°C° 0.8 mm 2 mps 771 mmHg 78%
    02:00 +1°C° 0.8 mm 2 mps 772 mmHg 84%
    03:00 +1°C° 0.8 mm 2 mps 772 mmHg 89%
    04:00 -1°C° 0.2 mm 2 mps 773 mmHg 88%
    05:00 -1°C° 0.2 mm 3 mps 774 mmHg 88%
    06:00 -2°C° 0.2 mm 3 mps 775 mmHg 87%
    07:00 -1°C° 0 mm 3 mps 776 mmHg 85%
    08:00 -1°C° 0 mm 3 mps 776 mmHg 82%
    09:00 -1°C° 0 mm 3 mps 777 mmHg 80%
    10:00 0°C° 0 mm 3 mps 777 mmHg 77%
    11:00 +1°C° 0 mm 3 mps 776 mmHg 75%
    12:00 +1°C° 0 mm 3 mps 776 mmHg 73%
    13:00 +2°C° 0 mm 2 mps 776 mmHg 72%
    14:00 +2°C° 0 mm 2 mps 776 mmHg 72%
    15:00 +3°C° 0 mm 2 mps 776 mmHg 72%
    16:00 +1°C° 0 mm 2 mps 776 mmHg 79%
    17:00 -1°C° 0 mm 2 mps 776 mmHg 86%
    18:00 -3°C° 0 mm 2 mps 777 mmHg 93%
    19:00 -3°C° 0 mm 2 mps 777 mmHg 93%
    20:00 -3°C° 0 mm 2 mps 777 mmHg 93%
    21:00 -3°C° 0 mm 2 mps 777 mmHg 93%
    22:00 -1°C° 0 mm 1 mps 777 mmHg 92%
    23:00 -1°C° 0 mm 1 mps 776 mmHg 92%

    24 January, Tuesday

    Time Temperature Precipitation Wind Pressure Humidity
    00:00 -1°C° 0 mm 1 mps 776 mmHg 91%
    01:00 -2°C° 0 mm 1 mps 776 mmHg 90%
    02:00 -2°C° 0 mm 1 mps 775 mmHg 88%
    03:00 -2°C° 0 mm 1 mps 775 mmHg 87%
    04:00 -2°C° 0 mm 1 mps 775 mmHg 85%
    05:00 -2°C° 0 mm 1 mps 774 mmHg 84%
    06:00 -2°C° 0 mm 1 mps 774 mmHg 82%
    07:00 -1°C° 0 mm 1 mps 774 mmHg 76%
    08:00 +1°C° 0 mm 1 mps 773 mmHg 70%
    09:00 +2°C° 0 mm 1 mps 773 mmHg 65%
    10:00 +3°C° 0 mm 1 mps 772 mmHg 60%
    11:00 +4°C° 0 mm 1 mps 771 mmHg 56%
    12:00 +6°C° 0 mm 1 mps 770 mmHg 52%
    13:00 +6°C° 0 mm 1 mps 769 mmHg 51%
    14:00 +6°C° 0 mm 1 mps 769 mmHg 50%
    15:00 +7°C° 0 mm 1 mps 768 mmHg 49%
    16:00 +5°C° 0 mm 1 mps 768 mmHg 55%
    17:00 +3°C° 0 mm 1 mps 768 mmHg 61%
    18:00 +1°C° 0 mm 1 mps 769 mmHg 66%
    19:00 +1°C° 0 mm 1 mps 768 mmHg 65%
    20:00 +1°C° 0 mm 1 mps 768 mmHg 64%
    21:00 +1°C° 0 mm 1 mps 768 mmHg 62%
    22:00 +1°C° 0 mm 1 mps 768 mmHg 61%
    23:00 0°C° 0 mm 1 mps 767 mmHg 61%
    Show more